FW7338 Weather Reports


time (UTC)temp
F
wind
direction
speed
knots
gust
knots
rain 1hr
in
rain 24hr
in
rain mn
in
humidity
%
barometer
mb
20260505101559 26 319 7.0 9.6 0.00 0.00 0.00 77 1011.3
20260505100059 26 320 7.8 10.4 0.00 0.00 0.00 77 1011.2
20260505094602 26 315 7.0 8.7 0.00 0.00 0.00 79 1010.9
20260505093100 26 344 2.6 3.5 0.00 0.00 0.00 76 1010.6
20260505091609 28 344 1.7 2.6 0.00 0.00 0.00 75 1010.6
20260505090058 29 344 1.7 3.5 0.00 0.00 0.00 77 1010.5
20260505084559 28 344 1.7 3.5 0.00 0.00 0.00 74 1010.4
20260505083100 29 344 1.7 3.5 0.00 0.00 0.00 70 1010.3
20260505081557 31 344 1.7 3.5 0.00 0.00 0.00 67 1010.2
20260505080107 32 344 3.5 7.0 0.00 0.00 0.00 64 1010.1
20260505074558 33 342 5.2 8.7 0.00 0.00 0.00 62 1010.0
20260505073103 34 322 7.0 12.2 0.00 0.00 0.00 59 1010.0
20260505071557 34 323 10.4 14.8 0.00 0.00 0.00 57 1009.9
20260505070057 34 318 7.0 9.6 0.00 0.00 0.00 59 1009.7
20260505064600 34 313 7.0 9.6 0.00 0.00 0.00 59 1009.7
20260505063113 35 324 6.1 9.6 0.00 0.00 0.00 58 1009.9
20260505061557 35 323 7.8 11.3 0.00 0.00 0.00 57 1010.0
20260505060057 36 326 8.7 11.3 0.00 0.00 0.00 57 1009.9
20260505054610 35 314 7.0 11.3 0.00 0.00 0.00 60 1009.8
20260505053100 35 307 7.8 10.4 0.00 0.00 0.00 62 1009.8
20260505051554 35 297 6.1 7.8 0.00 0.00 0.00 64 1009.7
20260505050103 35 297 7.0 8.7 0.00 0.00 0.00 63 1009.6
20260505041559 35 318 3.5 5.2 0.00 0.00 0.00 63 1009.6
20260505040059 35 321 3.5 5.2 0.00 0.00 0.00 63 1009.6
20260505034557 35 322 3.5 5.2 0.00 0.01 0.00 62 1009.6
20260505033057 36 322 3.5 7.8 0.00 0.01 0.00 59 1009.6
20260505031605 37 329 5.2 7.8 0.00 0.01 0.00 57 1009.5
20260505024605 37 336 7.8 11.3 0.00 0.01 0.00 56 1009.3
20260505023055 38 338 9.6 13.0 0.00 0.01 0.00 55 1009.0
20260505021600 38 341 9.6 14.8 0.00 0.01 0.00 55 1008.8
20260505014609 38 348 12.2 20.9 0.00 0.01 0.00 56 1008.6
20260505013057 39 5 13.9 18.2 0.00 0.01 0.00 51 1008.4
20260505011606 39 347 12.2 16.5 0.00 0.01 0.00 51 1008.3
20260505010056 40 345 11.3 17.4 0.00 0.01 0.00 47 1008.2
20260505004556 41 11 12.2 21.7 0.00 0.01 0.00 46 1008.1
20260505003055 41 346 14.8 21.7 0.00 0.01 0.00 44 1008.0
20260505001558 42 323 17.4 24.3 0.00 0.01 0.00 40 1007.9
20260505000115 42 352 17.4 23.5 0.00 0.01 0.00 40 1007.8
20260504234558 43 329 15.6 22.6 0.00 0.01 0.00 40 1007.7
20260504233108 43 317 15.6 22.6 0.00 0.01 0.00 41 1007.7
20260504231555 42 324 16.5 27.8 0.00 0.01 0.00 41 1007.7
20260504230056 43 310 18.2 28.7 0.00 0.01 0.00 44 1007.6
20260504224609 42 296 16.5 27.8 0.00 0.01 0.00 44 1007.4
20260504223131 43 327 18.2 25.2 0.00 0.01 0.00 43 1007.2
20260504221557 42 327 19.1 26.1 0.00 0.01 0.00 44 1007.2
20260504220100 43 314 18.2 24.3 0.00 0.01 0.00 43 1007.2
20260504214608 42 310 20.9 25.2 0.00 0.01 0.00 46 1007.0
20260504213105 42 338 19.1 26.9 0.00 0.01 0.00 46 1007.0
20260504211600 43 309 19.1 26.1 0.00 0.01 0.00 47 1007.0
20260504210100 43 321 20.0 27.8 0.00 0.01 0.00 47 1006.9
20260504204557 43 319 20.0 27.8 0.00 0.01 0.00 47 1006.9
20260504203111 42 320 19.1 26.1 0.00 0.01 0.00 49 1006.8
20260504201601 42 315 18.2 26.1 0.00 0.01 0.00 50 1006.8
20260504200125 42 327 20.0 26.9 0.00 0.01 0.00 49 1006.8
20260504194604 43 325 18.2 27.8 0.00 0.01 0.00 46 1006.5
20260504193155 42 291 17.4 30.4 0.00 0.01 0.00 51 1006.4
20260504191558 43 315 20.9 30.4 0.00 0.01 0.00 47 1006.4
20260504190055 44 317 17.4 30.4 0.00 0.01 0.00 43 1006.3
20260504184600 43 317 19.1 26.9 0.00 0.01 0.00 46 1006.2
20260504183057 43 339 20.0 26.9 0.00 0.01 0.00 48 1006.1
20260504181557 43 333 18.2 25.2 0.00 0.01 0.00 47 1006.0
20260504180056 43 330 18.2 26.1 0.00 0.01 0.00 45 1006.0
20260504174615 42 315 20.9 27.8 0.00 0.01 0.00 46 1006.0
20260504173100 43 305 16.5 26.1 0.00 0.01 0.00 45 1005.7
20260504171557 41 332 18.2 24.3 0.00 0.01 0.00 51 1005.7
20260504160106 40 333 19.1 30.4 0.00 0.01 0.00 51 1005.4
20260504150106 38 323 21.7 31.3 0.00 0.01 0.00 57 1005.0
20260504140109 38 326 17.4 26.1 0.00 0.01 0.00 70 1004.7